Regional Weather Roundup
Issued by NWS Sioux Falls, SD

Home | Current Version | Previous Version | Text Only | Print | Product List | Glossary Off
Versions: 1 2 3 4 5 6 7 8 9 10 11 12 13 14 15 16 17 18 19 20 21 22 23 24 25 26 27 28 29 30 31 32 33 34 35 36 37 38 39 40 41 42 43 44 45 46 47 48 49 50

000
ASUS43 KFSD 240302
RWRFSD

WEATHER ROUNDUP FOR SE SOUTH DAKOTA/SW MINNESOTA/NW IOWA
NATIONAL WEATHER SERVICE SIOUX FALLS SD
1000 PM CDT SUN APR 23 2017

NOTE: "FAIR" INDICATES FEW OR NO CLOUDS BELOW 12,000 FEET WITH NO
SIGNIFICANT WEATHER AND OR OBSTRUCTIONS TO VISIBILITY.


SDZ038>040-050-052>070-240400-
SOUTHEAST SOUTH DAKOTA

CITY           SKY/WX    TMP DP  RH WIND       PRES   REMARKS
BROOKINGS      CLOUDY    60  32  34 S12       29.77S
CHAMBERLAIN    CLOUDY    64  33  31 SE13      29.66S
HURON          CLOUDY    64  30  27 S15       29.68S
MADISON        FAIR      55  32  41 S10       29.77S
MITCHELL       CLOUDY    65  30  27 S16       29.72S
SIOUX FALLS    MOCLDY    61  31  32 S15       29.79S
WINNER         FAIR      63  38  39 S15       29.66S
YANKTON        CLOUDY    61  28  29 S10       29.80R
$$

MNZ071-072-080-081-089-090-097-098-240400-
SOUTHWEST MINNESOTA

CITY           SKY/WX    TMP DP  RH WIND       PRES   REMARKS
FAIRMONT       CLEAR     53  33  46 S9        29.90R
JACKSON        PTCLDY    57  30  35 S9        29.88S
LUVERNE        CLOUDY    52  32  46 S5        29.83S
MARSHALL       CLEAR     57  32  38 SE10      29.80S
MONTEVIDEO     MOCLDY    57  32  38 S8        29.79F
PIPESTONE      CLOUDY    57  25  28 S13       29.81R
REDWOOD FALLS  CLEAR     59  32  36 S14       29.82S
TRACY          CLEAR     59  33  36 S10       29.82S
WINDOM         PTCLDY    55  30  38 SE10      29.86S
WORTHINGTON    CLOUDY    58  29  33 S13       29.85S
$$

IAZ001>003-012>014-020>022-031-032-NEZ013-014-SDZ071-240400-
NORTHWEST IOWA

CITY           SKY/WX    TMP DP  RH WIND       PRES   REMARKS
CHEROKEE       CLOUDY    54  33  45 S6        29.88R
DENISON        CLEAR     59  32  36 S15       29.91F
ESTHERVILLE    CLOUDY    50  33  52 S9        29.89R
LE MARS        CLOUDY    57  32  38 SE5       29.87R
ORANGE CITY    CLOUDY    55  34  44 S8        29.86S
SHELDON        PTCLDY    57  30  35 S15       29.84S
SIOUX CITY     PTCLDY    63  27  25 S20       29.86R
SPENCER        CLOUDY    53  33  46 MISG      29.88R
STORM LAKE     PTCLDY    54  32  43 S14       29.89S
$$

ABBREVIATIONS USED IN REMARKS
   TC - TEMPERATURE IN CELSIUS
  WCI - WIND CHILL INDEX
   HX - HEAT INDEX
  VSB - VISIBILITY




USA.gov is the U.S. government's official web portal to all federal, state and local government web resources and services.